[[{"header":{"parameterUnit":"m.s-1","parameterCategory":1,"la1":30.2991,"la2":30.254,"lo1":-89.0895,"lo2":-89.0444,"dy":0.0017,"dx":0.0017,"nx":28,"ny":28,"refTime":"2025-03-26T09:00:00:Z","depth":0,"parameterNumber":2,"parameterNumberName":"U-component_of_WINDS"},"data":[0,0,0,0,0,0,0,0,0,0,0,0,0,0,0,0,0,0,0,0,0,0,0,0,0,0,0,0,0,0,0,0,0,0,0,0,0,0,0,0,0,0,0,0,0,0,0,0,0,0,0,0,0,0,0,0,0,0,-2.8898,-2.8899,0,-2.8947,-2.8947,-2.8948,-2.888,-2.8877,-2.8875,-2.8873,-2.8923,-2.8927,-2.8931,0,0,0,0,0,0,0,0,0,0,0,0,0,-2.8748,-2.8751,-2.8898,-2.8899,-2.8899,-2.8947,-2.8947,-2.8948,-2.888,-2.8877,-2.8874,-2.8872,-2.8922,-2.8927,-2.8931,0,0,0,0,0,0,0,0,0,0,0,0,0,-2.8807,-2.8752,-2.8898,-2.8871,-2.8869,-2.8947,-2.8947,-2.8948,-2.8881,-2.8877,-2.8874,-2.887,-2.8921,-2.8926,-2.8931,-2.9038,0,0,-2.8948,-2.895,0,0,0,0,0,0,0,0,-2.8803,-2.8812,-2.8875,-2.8873,-2.8871,-2.8903,-2.8913,-2.8978,-2.8882,-2.8877,-2.8873,-2.8868,-2.892,-2.8925,-2.8942,-2.904,-2.9042,-2.8948,-2.8952,-2.8954,-2.8956,0,0,0,0,0,0,0,-2.8799,-2.881,-2.8917,-2.8876,-2.8874,-2.8857,-2.8862,-2.8925,-2.8918,-2.8877,-2.8872,-2.8878,-2.8918,-2.8937,-2.8943,-2.9043,-2.8948,-2.8953,-2.8956,-2.8959,-2.9231,-2.9235,0,0,0,0,0,0,-2.8798,-2.8807,-2.8916,-2.8919,-2.8828,-2.8863,-2.8868,-2.8897,-2.8917,-2.8917,-2.8882,-2.8875,-2.893,-2.8937,-2.8944,-2.9071,-2.8954,-2.8959,-2.8962,-2.9227,-2.9232,-2.9236,0,0,0,0,0,0,-2.8795,-2.8809,-2.8914,-2.8862,-2.8874,-2.8869,-2.8903,-2.89,-2.8918,-2.8921,-2.8919,-2.8902,-2.8927,-2.8937,-2.9015,-2.9071,-2.8962,-2.8966,-2.9223,-2.9229,-2.9234,-2.9324,0,0,0,0,0,0,-2.8791,-2.8808,-2.8848,-2.8863,-2.8877,-2.8984,-2.8906,-2.8903,-2.8928,-2.892,-2.894,-2.8939,-2.8925,-2.9007,-2.9021,-2.9077,-2.8971,-2.9217,-2.9225,-2.9232,-2.9316,-2.9332,-2.9346,0,0,0,0,0,-2.8786,-2.8871,-2.885,-2.8864,-2.8926,-2.8987,-2.8995,-2.8976,-2.8933,-2.8973,-2.8975,-2.8939,-2.9063,-2.9016,-2.903,-2.9089,-2.9214,-2.9223,-2.9232,-2.9309,-2.9329,-2.9345,0,0,0,0,0,0,-2.8863,-2.8873,-2.885,-2.8942,-2.8964,-2.8975,-2.9025,-2.8998,-2.9033,-2.9024,-2.9,-2.9005,-2.9089,-2.9096,-2.9044,-2.9193,-2.9131,-2.9144,-2.9185,-2.9204,-2.9219,-2.9215,-2.8975,0,0,0,0,0,-2.8891,-2.8939,-2.8944,-2.9025,-2.9038,-2.903,-2.9055,-2.9039,-2.9061,-2.9071,-2.9078,-2.9101,-2.9145,-2.9175,-2.9216,-2.9316,-2.932,-2.9364,-2.9379,-2.9392,-2.9403,-2.9457,-2.9477,-2.9266,-2.9266,-2.9266,0,0,-2.8948,-2.8959,-2.8991,-2.9041,-2.9056,-2.9107,-2.9038,-2.9094,-2.9132,-2.9079,-2.9154,-2.916,-2.9184,-2.9275,-2.9315,-2.9284,-2.9462,-2.9403,-2.9413,-2.9417,-2.9468,-2.9488,-2.9506,-2.9272,-2.9271,-2.927,0,0,-2.9079,-2.9092,-2.9161,-2.9178,-2.9202,-2.9197,-2.9214,-2.9229,-2.9231,-2.9306,-2.9267,-2.9312,-2.9389,-2.9408,-2.9428,-2.9567,-2.9536,-2.9581,-2.966,-2.9714,-2.9731,-2.9745,-2.9796,-2.9814,-2.9592,-2.9592,-2.9592,0,-2.9148,-2.9222,-2.92,-2.926,-2.9283,-2.9238,-2.9308,-2.9325,-2.9362,-2.938,-2.9344,-2.944,-2.9453,-2.9548,-2.9582,-2.9599,-2.9618,-2.9579,-2.973,-2.9744,-2.9758,-2.9805,-2.9824,-2.9598,-2.9597,-2.9597,-2.9596,0,-2.9306,-2.9358,-2.9411,-2.9447,-2.9477,-2.9541,-2.953,-2.9563,-2.9544,-2.9543,-2.962,-2.9634,-2.9677,-2.9698,-2.9681,-2.9791,-2.9771,-2.9734,-2.9671,-2.9783,-2.9828,-2.9846,-2.9605,-2.9603,-2.9602,-2.9601,0,0,-2.9486,-2.951,-2.953,-2.9546,-2.957,-2.961,-2.9673,-2.9715,-2.9744,-2.9771,-2.9824,-2.989,-2.9856,-2.9878,-2.9863,-2.991,-3.002,-2.9866,-2.9866,-2.9895,-3.0143,-3.0172,-3.0193,-3.0,-3.0003,-3.0006,-3.0141,0,-2.9617,-2.9725,-2.9708,-2.9813,-2.9862,-2.982,-2.9875,-2.9896,-2.9896,-2.9938,-2.9938,-2.9986,-2.9937,-2.995,-2.9995,-2.9997,-3.007,-2.9987,-3.0049,-3.0052,-3.0044,-3.0216,-3.0247,-3.0374,-3.0159,-3.0162,-3.0164,0,-2.9784,-2.9817,-2.9927,-2.9944,-2.9964,-3.0014,-3.0051,-3.0092,-3.0115,-3.0112,-3.0138,-3.0114,-3.0178,-3.0114,-3.0202,-3.0146,-3.0171,-3.0176,-3.018,-3.0186,-3.0115,-3.0227,-3.0414,-3.0433,-3.0191,-3.0189,-3.0187,0,-2.9905,-2.9977,-3.0052,-3.0068,-3.0089,-3.0125,-3.0136,-3.0156,-3.0183,-3.0216,-3.0233,-3.0274,-3.0296,-3.0328,-3.0316,-3.0271,-3.0407,-3.0342,-3.0407,-3.0408,-3.0438,-3.0436,-3.0632,-3.0453,-3.0453,-3.0452,-3.0452,0,-3.0053,-3.0122,-3.0107,-3.0154,-3.023,-3.021,-3.0287,-3.0292,-3.031,-3.0358,-3.0324,-3.0369,-3.035,-3.0395,-3.0386,-3.046,-3.0471,-3.0471,-3.0468,-3.0474,-3.0474,-3.0489,-3.048,-3.0458,-3.0456,-3.0455,-3.0455,0,-3.0201,-3.0193,-3.0273,-3.0287,-3.0292,-3.0348,-3.0361,-3.0405,-3.0403,-3.0463,-3.0476,-3.0474,-3.0524,-3.0515,-3.0571,-3.0565,-3.0659,-3.0645,-3.0651,-3.0648,-3.0713,-3.0707,-3.0926,-3.0954,-3.0757,-3.0759,-3.0761,0,-3.0296,-3.0348,-3.0368,-3.0397,-3.0411,-3.0458,-3.0486,-3.0468,-3.0498,-3.053,-3.057,-3.0618,-3.0654,-3.0737,-3.0741,-3.0784,-3.077,-3.0844,-3.0777,-3.0782,-3.0772,-3.0769,-3.0775,-3.0858,-3.086,-3.0862,-3.0863,0,-3.0466,-3.046,-3.05,-3.054,-3.0574,-3.0605,-3.0632,-3.0658,-3.0643,-3.0679,-3.073,-3.0759,-3.0816,-3.0864,-3.0904,-3.0916,-3.0888,-3.0884,-3.0902,-3.0909,-3.0911,-3.0911,-3.0688,-3.0879,-3.0878,-3.0877,-3.0876,-3.0875,-3.059,-3.0635,-3.0657,-3.0703,-3.0722,-3.0749,-3.0791,-3.0795,-3.0837,-3.0882,-3.0869,-3.0928,-3.0951,-3.1002,-3.1018,-3.1064,-3.1037,-3.1062,-3.1068,-3.1075,-3.1083,-3.0903,-3.1071,-3.1071,-3.107,-3.107,-3.1069,0,-3.0759,-3.0771,-3.0814,-3.0853,-3.089,-3.0861,-3.089,-3.0923,-3.0974,-3.0998,-3.1035,-3.1095,-3.1141,-3.1149,-3.1193,-3.1229,-3.1217,-3.1241,-3.1238,-3.1242,-3.1104,-3.1085,-3.125,-3.125,-3.125,-3.125,-3.125,-3.125,-3.0851,-3.0925,-3.0922,-3.1006,-3.1017,-3.1074,-3.1093,-3.1118,-3.1137,-3.1205,-3.1243,-3.1248,-3.1266,-3.1311,-3.1353,-3.1354,-3.1372,-3.1401,-3.1397,-3.1269,-3.1251,-3.1234,-3.1216,-3.1405,-3.1405,-3.1531,-3.1532,-3.1533]},{"header":{"parameterUnit":"m.s-1","parameterCategory":1,"la1":30.2991,"la2":30.254,"lo1":-89.0895,"lo2":-89.0444,"dy":0.0017,"dx":0.0017,"nx":28,"ny":28,"refTime":"2025-03-26T09:00:00:Z","depth":0,"parameterNumber":3,"parameterNumberName":"V-component_of_WINDS"},"data":[0,0,0,0,0,0,0,0,0,0,0,0,0,0,0,0,0,0,0,0,0,0,0,0,0,0,0,0,0,0,0,0,0,0,0,0,0,0,0,0,0,0,0,0,0,0,0,0,0,0,0,0,0,0,0,0,0,0,-0.047,-0.047,0,-0.0413,-0.0412,-0.0411,-0.0374,-0.0373,-0.0373,-0.0373,-0.0314,-0.0313,-0.0311,0,0,0,0,0,0,0,0,0,0,0,0,0,-0.0546,-0.0545,-0.047,-0.047,-0.0469,-0.0413,-0.0412,-0.0411,-0.0374,-0.0373,-0.0373,-0.0373,-0.0314,-0.0313,-0.0311,0,0,0,0,0,0,0,0,0,0,0,0,0,-0.0503,-0.0544,-0.0471,-0.0443,-0.044,-0.0413,-0.0412,-0.0411,-0.0374,-0.0373,-0.0373,-0.0373,-0.0315,-0.0313,-0.0311,-0.0306,0,0,-0.0305,-0.0304,0,0,0,0,0,0,0,0,-0.0506,-0.0501,-0.0448,-0.0445,-0.0442,-0.04,-0.0417,-0.0376,-0.0374,-0.0399,-0.0373,-0.0373,-0.0343,-0.0338,-0.0328,-0.0303,-0.03,-0.0304,-0.0303,-0.0302,-0.0302,0,0,0,0,0,0,0,-0.0509,-0.0503,-0.0448,-0.0447,-0.0444,-0.0434,-0.0427,-0.0409,-0.0374,-0.0397,-0.0394,-0.0388,-0.0341,-0.0331,-0.0327,-0.0299,-0.0305,-0.0303,-0.0301,-0.0301,-0.0264,-0.0264,0,0,0,0,0,0,-0.0516,-0.0506,-0.0449,-0.0446,-0.0474,-0.0433,-0.0425,-0.0414,-0.0374,-0.0367,-0.0388,-0.0386,-0.0334,-0.0329,-0.0325,-0.0314,-0.0302,-0.0301,-0.0299,-0.0264,-0.0264,-0.0265,0,0,0,0,0,0,-0.0518,-0.0512,-0.0452,-0.0475,-0.0466,-0.0432,-0.0419,-0.0413,-0.0402,-0.0367,-0.0361,-0.0384,-0.0334,-0.0327,-0.031,-0.0312,-0.03,-0.0298,-0.0264,-0.0264,-0.0264,-0.0295,0,0,0,0,0,0,-0.052,-0.0512,-0.0511,-0.0475,-0.0465,-0.0439,-0.0419,-0.0412,-0.0399,-0.0396,-0.0362,-0.0355,-0.0333,-0.0313,-0.0308,-0.0309,-0.0296,-0.0263,-0.0264,-0.0264,-0.0293,-0.0296,-0.0298,0,0,0,0,0,-0.0523,-0.0522,-0.0511,-0.0504,-0.0463,-0.0439,-0.0433,-0.0408,-0.0399,-0.0397,-0.0374,-0.0357,-0.0312,-0.0312,-0.0306,-0.0306,-0.0263,-0.0264,-0.0264,-0.0292,-0.0296,-0.0298,0,0,0,0,0,0,-0.0559,-0.0517,-0.0504,-0.0491,-0.0469,-0.0433,-0.0429,-0.0412,-0.0392,-0.039,-0.0358,-0.0351,-0.0336,-0.0319,-0.0319,-0.0297,-0.0286,-0.0285,-0.0309,-0.0312,-0.0314,-0.0319,-0.0294,0,0,0,0,0,-0.0565,-0.055,-0.0514,-0.0506,-0.0496,-0.0464,-0.0453,-0.0435,-0.0411,-0.0401,-0.0377,-0.0354,-0.0334,-0.0322,-0.0303,-0.0291,-0.0282,-0.0288,-0.029,-0.0292,-0.0292,-0.0282,-0.0284,-0.0266,-0.0266,-0.0266,0,0,-0.0578,-0.0554,-0.0546,-0.0513,-0.0493,-0.0478,-0.0457,-0.0441,-0.0429,-0.0399,-0.038,-0.0362,-0.0333,-0.0318,-0.0311,-0.0304,-0.0295,-0.0293,-0.0295,-0.0293,-0.0283,-0.0285,-0.0286,-0.0267,-0.0267,-0.0267,0,0,-0.0594,-0.0574,-0.0565,-0.0545,-0.0516,-0.0495,-0.0493,-0.0458,-0.0445,-0.0426,-0.0402,-0.0387,-0.0355,-0.0335,-0.032,-0.0326,-0.0309,-0.0321,-0.0334,-0.0325,-0.0326,-0.0327,-0.0328,-0.0329,-0.0321,-0.0321,-0.0321,0,-0.0614,-0.059,-0.0562,-0.0547,-0.0533,-0.0504,-0.0493,-0.0476,-0.0442,-0.0432,-0.0425,-0.0382,-0.0362,-0.034,-0.0342,-0.0332,-0.0327,-0.0325,-0.0328,-0.0329,-0.033,-0.033,-0.0331,-0.0322,-0.0322,-0.0322,-0.0322,0,-0.0615,-0.0598,-0.0594,-0.0561,-0.0546,-0.0534,-0.0503,-0.0491,-0.0474,-0.0453,-0.0433,-0.0407,-0.0381,-0.0374,-0.0358,-0.035,-0.0347,-0.0335,-0.0322,-0.0333,-0.0333,-0.0333,-0.0325,-0.0324,-0.0324,-0.0323,0,0,-0.0652,-0.0603,-0.0602,-0.0586,-0.055,-0.0537,-0.0522,-0.0496,-0.0486,-0.0463,-0.0449,-0.0421,-0.0409,-0.0393,-0.0374,-0.0366,-0.037,-0.0354,-0.0353,-0.0357,-0.0359,-0.0368,-0.0369,-0.0359,-0.0359,-0.0359,-0.0361,0,-0.0662,-0.0635,-0.0608,-0.059,-0.0574,-0.0545,-0.0532,-0.0509,-0.0489,-0.0471,-0.0448,-0.0429,-0.0415,-0.0405,-0.0396,-0.0372,-0.037,-0.0371,-0.0345,-0.0344,-0.0352,-0.0369,-0.0378,-0.0382,-0.0361,-0.0361,-0.0361,0,-0.0669,-0.0647,-0.0627,-0.0592,-0.0584,-0.0573,-0.0546,-0.053,-0.0502,-0.0487,-0.0468,-0.0447,-0.043,-0.0419,-0.0393,-0.0395,-0.0382,-0.0368,-0.0368,-0.0364,-0.0353,-0.0364,-0.0382,-0.0383,-0.036,-0.036,-0.036,0,-0.0697,-0.0662,-0.0645,-0.0632,-0.0591,-0.0583,-0.0566,-0.0537,-0.0523,-0.0499,-0.0489,-0.0464,-0.045,-0.043,-0.0402,-0.0397,-0.0379,-0.0366,-0.0365,-0.0366,-0.0363,-0.0363,-0.0378,-0.0356,-0.0356,-0.0356,-0.0356,0,-0.071,-0.0698,-0.0656,-0.0646,-0.0632,-0.0601,-0.0588,-0.0568,-0.0543,-0.0527,-0.0501,-0.0487,-0.0451,-0.0432,-0.0411,-0.0392,-0.0386,-0.0373,-0.0367,-0.0375,-0.0376,-0.0366,-0.0365,-0.0356,-0.0356,-0.0356,-0.0356,0,-0.0738,-0.071,-0.0689,-0.0651,-0.0641,-0.0633,-0.06,-0.0588,-0.0566,-0.0546,-0.054,-0.0505,-0.0481,-0.0451,-0.0419,-0.0404,-0.0387,-0.0378,-0.0396,-0.0393,-0.0393,-0.0393,-0.0401,-0.04,-0.038,-0.038,-0.038,0,-0.0748,-0.0738,-0.0699,-0.0687,-0.067,-0.065,-0.0635,-0.0604,-0.0589,-0.0555,-0.0547,-0.0522,-0.0499,-0.0462,-0.0434,-0.0408,-0.0398,-0.0403,-0.0394,-0.0402,-0.0397,-0.0398,-0.0396,-0.0405,-0.0405,-0.0406,-0.0406,0,-0.0768,-0.0754,-0.0733,-0.0707,-0.0689,-0.0667,-0.0643,-0.0635,-0.0599,-0.0583,-0.0558,-0.0541,-0.0506,-0.0481,-0.0451,-0.0432,-0.0412,-0.0409,-0.0407,-0.0415,-0.0425,-0.0418,-0.0401,-0.0409,-0.0409,-0.0408,-0.0408,-0.0408,-0.0786,-0.0776,-0.0746,-0.0723,-0.0702,-0.0681,-0.0667,-0.0643,-0.0622,-0.0592,-0.0574,-0.055,-0.052,-0.0478,-0.0459,-0.0439,-0.0432,-0.043,-0.0429,-0.0429,-0.0431,-0.0429,-0.0434,-0.0433,-0.0433,-0.0433,-0.0433,0,-0.0804,-0.0783,-0.0762,-0.073,-0.0711,-0.0695,-0.0668,-0.0653,-0.0632,-0.0606,-0.0584,-0.0555,-0.053,-0.0498,-0.047,-0.046,-0.045,-0.0454,-0.0454,-0.0449,-0.0439,-0.0443,-0.0462,-0.0462,-0.0462,-0.0462,-0.0462,-0.0462,-0.081,-0.0792,-0.0774,-0.0744,-0.0723,-0.0698,-0.0684,-0.0663,-0.0642,-0.0611,-0.059,-0.0569,-0.0541,-0.051,-0.0486,-0.0477,-0.0467,-0.0473,-0.0462,-0.0453,-0.045,-0.0448,-0.0451,-0.0472,-0.0472,-0.0473,-0.0474,-0.0474]}]]